Theta_e
303 303 304 304 306 309 312 315 318 319 320 319 320 328 324 321 323 320 322 320 319 319 321 320 319 318 320 321 320 322 320 321 329 321 322 322 322 324 322 336 326 332 334 325
302 303 303 304 306 309 312 317 320 321 320 320 325 325 324 322 322 322 323 322 321 319 320 321 320 320 324 324 323 323 323 323 326 322 323 323 322 321 320 323 329 330 334 326
301 302 302 304 306 308 313 317 323 326 325 318 322 326 323 322 322 321 322 322 320 320 320 320 321 322 324 323 324 315 323 322 321 327 323 324 326 323 320 321 333 329 325 319
299 302 302 304 306 308 312 320 322 324 327 326 324 327 323 322 322 320 322 322 319 322 324 322 324 323 325 323 318 320 323 324 322 321 321 322 323 322 321 320 322 324 324 320
299 302 301 303 306 307 311 319 322 324 324 323 324 326 326 323 321 322 324 324 321 323 324 323 323 323 327 325 324 323 323 327 326 327 323 323 322 321 320 319 318 319 319 319
301 302 301 301 305 308 312 316 321 323 323 324 326 328 327 324 323 323 322 323 323 323 325 326 327 328 327 325 327 327 328 333 328 325 320 320 321 322 320 318 319 319 320 321
302 301 301 301 304 306 312 316 321 324 326 324 326 326 325 322 322 326 324 325 326 326 324 325 325 323 324 325 325 326 329 329 329 330 319 324 316 317 316 316 316 316 315 317
300 301 302 302 303 307 311 317 321 324 324 325 324 326 325 322 322 325 325 327 326 326 325 328 327 331 324 322 320 320 323 327 329 331 324 319 317 316 316 316 316 316 316 315
299 301 301 301 301 303 309 312 315 325 325 328 323 323 324 325 331 328 325 324 326 326 334 336 330 332 325 326 323 317 318 324 330 325 331 330 322 316 316 316 320 316 316 317
300 302 302 301 301 302 304 312 313 323 326 325 324 323 324 323 329 329 326 324 324 324 335 331 337 333 323 329 328 324 325 327 326 327 329 327 318 316 316 319 325 318 317 317
301 301 301 301 302 302 305 310 311 319 324 323 324 322 321 326 329 331 327 327 326 334 334 336 336 334 331 328 322 324 325 329 328 330 327 326 315 316 320 323 319 318 317 317
302 302 302 303 306 306 308 311 312 314 328 327 325 323 323 323 323 330 327 328 327 330 332 332 338 325 321 328 331 320 327 326 331 325 327 320 316 316 315 317 317 317 317 317
302 303 304 304 304 308 310 311 313 324 329 326 324 325 322 322 325 325 328 328 327 328 332 336 336 323 330 326 333 327 321 319 325 322 316 316 316 315 315 316 317 316 317 318
304 304 304 304 306 309 310 310 313 325 327 324 328 322 322 320 322 325 326 328 328 330 331 335 320 327 327 333 330 334 323 319 319 320 318 317 317 318 318 317 317 317 317 315
304 306 305 307 309 308 309 311 314 322 325 326 326 321 320 320 322 323 324 327 328 330 330 318 334 329 329 327 327 329 320 319 326 327 319 320 319 315 315 313 312 311 310 307
306 308 309 308 309 310 311 321 321 321 324 328 328 321 321 320 321 322 324 326 327 328 331 328 326 320 328 328 328 319 318 317 317 319 317 318 314 311 309 308 308 306 306 304
307 308 308 309 310 311 319 318 316 319 324 327 324 322 320 322 322 323 324 323 326 327 328 326 326 322 324 321 328 319 315 314 315 313 315 314 313 310 308 305 303 301 300 299
308 309 309 310 312 314 317 313 314 316 320 324 322 317 322 320 325 324 322 327 326 323 320 322 326 320 327 328 318 314 312 313 311 311 311 310 308 306 304 302 301 300 299 298
311 312 313 312 316 320 317 313 316 315 318 320 322 320 323 318 316 317 320 322 323 318 319 325 323 317 323 319 315 312 311 313 310 309 308 306 304 303 302 301 299 299 299 299
313 314 317 317 315 311 310 315 320 320 317 318 315 317 320 317 315 315 317 317 319 319 318 316 319 318 310 309 308 308 309 310 309 307 304 303 302 301 301 300 299 297 295 294
317 319 315 311 311 313 315 316 319 318 318 313 312 315 318 315 319 316 314 317 318 319 318 319 318 316 309 306 306 305 307 307 306 305 302 302 301 300 299 296 294 293 292 291
315 315 312 311 315 314 312 314 314 318 317 309 313 312 312 312 315 314 314 313 314 318 313 317 317 310 305 304 303 303 303 303 302 301 300 299 297 296 295 294 293 291 291 290
312 311 308 313 309 314 318 313 314 312 307 306 309 310 311 311 312 313 312 313 317 313 314 314 311 304 303 302 303 302 301 300 299 297 296 295 294 293 292 291 290 293 292 289
311 310 309 308 310 306 305 306 305 300 301 305 309 309 310 309 310 311 312 308 311 315 315 314 305 302 301 302 301 300 298 296 296 295 293 292 290 289 289 288 288 287 287 287
304 304 305 303 299 299 299 298 300 299 302 305 312 312 311 309 308 310 309 311 314 313 314 306 302 300 300 300 300 296 296 295 295 294 292 291 290 289 288 287 287 286 286 285
299 299 302 300 302 300 299 298 299 298 300 305 309 310 311 309 311 313 312 315 315 309 303 299 298 298 299 299 297 296 297 297 295 293 291 290 290 290 288 285 285 285 284 283
301 300 296 298 298 299 298 297 298 297 301 305 307 310 307 306 311 310 306 307 304 299 298 297 296 297 298 297 296 296 296 295 294 292 291 290 288 287 287 287 285 285 284 283
Wind_Speed
33 42 38 35 33 33 39 17 9 33 41 10 11 14 22 21 22 10 9 16 16 15 12 13 12 14 13 11 8 5 6 3 4 10 2 6 8 9 10 3 4 2 1 7
29 39 39 38 37 40 29 11 8 29 27 13 12 18 25 24 24 14 15 15 16 10 11 7 10 5 5 6 3 1 1 2 4 8 7 8 8 11 10 5 3 5 3 4
29 37 39 40 40 43 30 10 10 5 9 12 19 23 20 24 23 17 14 16 13 8 10 9 9 6 4 3 3 4 4 5 8 6 10 4 7 12 10 10 3 3 8 13
32 37 38 40 40 43 29 7 11 11 13 17 19 20 18 25 21 19 15 16 17 11 8 11 7 7 7 3 3 2 2 7 10 13 15 3 10 11 8 12 10 10 10 14
36 40 38 37 38 41 25 10 10 12 9 19 21 20 25 24 22 17 15 15 13 14 9 9 10 11 8 8 7 7 5 1 3 3 11 14 12 14 13 15 13 14 14 13
40 42 40 38 38 44 11 19 14 9 12 22 20 20 22 24 18 19 18 18 14 17 5 10 10 11 8 4 9 9 6 3 2 2 5 6 5 9 16 15 14 12 10 10
41 40 39 37 37 43 22 25 10 5 15 19 23 25 23 23 21 12 10 12 14 9 14 13 12 12 10 8 6 7 3 3 1 1 1 1 7 3 5 5 8 10 11 9
36 36 37 39 33 45 40 24 4 4 9 17 25 27 22 23 19 13 10 7 7 14 9 4 4 2 3 1 3 4 6 4 2 2 4 7 11 2 2 1 3 11 10 11
31 33 36 39 40 32 48 32 13 6 10 17 30 23 20 13 6 3 5 10 6 4 2 2 4 4 5 6 6 2 3 4 1 3 2 4 0 4 2 2 2 9 9 8
30 36 37 40 39 41 32 23 25 9 5 13 20 18 14 11 9 6 11 5 3 3 2 2 2 3 6 5 6 4 2 1 4 3 2 5 3 5 1 2 3 4 6 7
35 34 34 32 37 38 33 34 39 9 3 11 18 16 15 8 11 7 8 6 3 3 2 3 2 2 3 2 6 6 6 6 3 2 2 5 5 5 3 4 4 7 7 7
33 33 34 32 27 33 35 18 38 38 10 5 15 15 11 4 7 6 9 5 9 5 3 1 3 2 2 3 2 10 3 4 2 7 4 5 3 3 3 5 4 4 5 6
33 33 33 31 29 38 40 36 32 11 2 5 5 6 8 12 9 10 4 3 8 5 3 3 2 3 4 3 4 3 4 4 1 2 4 5 3 1 0 5 7 9 9 8
36 45 42 33 32 35 40 33 39 21 6 5 5 2 4 6 3 5 4 1 8 6 5 3 3 3 4 3 2 3 1 8 6 6 8 5 7 12 10 8 9 10 10 13
25 32 35 33 32 32 35 33 31 19 4 4 5 7 5 1 4 7 5 8 7 5 3 2 2 2 4 2 1 1 6 3 3 3 8 3 9 11 9 11 10 11 11 13
38 37 37 34 32 30 13 4 7 5 8 4 3 2 2 6 10 9 8 6 5 4 3 2 3 2 2 3 3 6 9 7 5 3 6 5 12 12 13 12 12 13 13 16
34 32 32 31 31 29 2 3 3 6 5 3 3 3 1 7 9 4 4 2 2 2 3 2 3 2 2 3 3 11 6 5 6 5 4 10 6 8 12 15 15 17 16 15
35 32 29 26 25 13 5 10 5 6 4 3 3 0 3 2 2 3 3 2 3 5 3 1 2 2 1 2 9 9 5 4 7 6 9 12 13 15 12 14 13 12 11 12
32 30 30 28 15 4 2 8 16 18 9 1 2 4 4 3 3 2 2 1 2 1 2 2 3 1 3 5 8 7 5 3 7 8 13 13 12 11 11 11 11 11 8 8
46 43 8 3 3 14 4 1 2 4 4 3 1 2 3 2 2 2 2 2 3 2 1 2 1 2 5 5 6 6 4 6 8 13 11 10 10 10 10 11 12 12 11 12
10 3 3 8 9 4 3 3 2 3 1 1 1 3 3 3 2 3 2 2 0 4 3 4 3 3 6 6 7 4 5 10 8 13 12 10 10 9 10 10 13 13 13 10
11 21 12 4 2 3 5 3 2 2 1 1 1 2 3 2 1 3 2 3 2 3 4 3 4 4 10 9 8 7 9 12 13 17 14 16 15 14 14 13 11 10 12 11
10 7 4 3 4 4 1 4 1 1 2 2 2 2 1 2 3 3 3 3 2 5 2 3 2 8 8 9 9 10 13 16 16 16 17 17 16 16 15 12 10 10 13 11
4 3 5 4 3 3 0 2 1 2 2 1 2 2 2 1 3 1 4 1 3 3 3 3 4 9 8 7 9 11 12 8 12 14 15 14 14 14 14 12 10 11 12 10
5 5 4 3 2 1 1 2 1 2 2 1 2 3 3 3 4 2 4 2 3 4 1 2 5 9 7 9 10 11 8 6 10 13 12 13 12 12 11 11 10 11 11 11
3 5 3 2 2 3 3 4 3 5 3 2 2 3 3 4 2 1 1 3 1 2 2 3 7 8 7 8 10 10 12 12 15 14 13 12 10 10 11 10 10 9 11 11
4 4 2 2 4 4 2 2 3 4 2 3 2 4 3 0 1 3 4 3 2 2 3 3 6 9 7 8 12 12 13 14 14 14 11 10 9 10 7 6 8 6 7 10
Wind_Direction
218 213 214 210 205 199 184 190 208 154 152 182 210 219 215 226 245 204 253 266 229 224 199 191 222 222 219 184 222 206 244 287 280 247 296 340 319 297 214 162 272 133 354 280
226 212 211 206 201 195 176 189 181 160 169 196 205 213 222 225 237 199 216 247 254 198 236 193 221 202 44 60 170 3 303 238 258 276 216 213 244 251 256 284 69 206 175 264
220 214 210 205 201 198 186 182 180 176 215 218 199 204 211 219 239 242 205 230 239 203 218 205 204 188 107 104 79 42 329 257 255 242 257 334 227 238 246 230 153 238 255 274
228 213 210 207 202 200 201 207 206 184 188 203 201 201 211 213 213 220 227 215 219 203 208 189 216 189 112 137 119 174 236 244 269 275 269 268 295 298 255 243 236 232 255 265
218 206 209 203 202 202 205 207 197 167 186 186 208 210 213 209 205 187 223 233 213 203 195 207 195 209 157 181 169 196 197 220 335 299 291 284 271 278 277 276 275 259 270 276
204 201 204 204 201 201 196 225 255 168 171 183 200 211 207 216 201 211 214 210 203 220 145 93 62 47 158 206 160 197 152 133 142 242 346 344 319 239 249 257 263 266 268 280
196 199 202 203 205 207 202 219 233 213 179 188 200 197 213 211 214 190 186 220 229 110 110 84 67 70 76 88 39 175 113 160 104 84 309 283 243 11 342 314 307 298 306 354
196 197 197 198 208 211 211 218 302 239 204 187 192 203 198 202 219 180 167 32 95 143 117 105 117 80 65 156 126 135 163 136 135 148 221 290 310 294 1 15 338 34 32 22
198 196 198 200 214 220 216 236 283 279 177 204 191 191 199 197 135 68 104 92 112 131 96 117 183 174 200 158 139 109 70 52 178 166 233 231 136 79 30 346 205 51 27 13
197 194 197 200 216 225 229 230 239 254 219 193 193 194 189 189 124 136 135 144 114 340 91 123 177 185 198 149 167 168 102 186 188 157 237 296 334 112 22 226 66 41 5 359
199 199 196 204 215 223 219 225 238 273 277 179 186 192 182 166 171 154 136 146 162 139 138 159 134 114 206 161 183 163 168 161 183 142 149 267 126 128 122 56 0 5 349 346
196 201 199 198 212 209 204 233 242 238 220 89 79 65 52 17 157 122 166 177 156 164 159 103 75 75 25 38 198 203 182 192 179 174 204 152 181 36 11 19 347 333 318 326
203 200 192 203 208 205 203 218 243 284 150 88 101 77 49 54 51 99 141 234 167 161 91 130 118 144 171 146 215 154 208 98 177 47 254 204 186 319 74 53 24 360 341 335
191 194 197 206 206 204 211 228 250 309 79 108 92 99 46 1 45 100 54 265 51 104 107 102 133 134 221 185 271 127 335 148 200 213 260 309 73 55 40 23 17 22 4 38
199 196 200 196 199 203 206 228 260 310 344 106 112 106 19 44 164 153 133 134 133 134 113 105 144 104 100 40 0 202 187 205 169 216 78 32 44 58 39 58 49 38 35 54
181 180 185 189 190 189 190 240 223 352 80 103 116 65 57 131 159 161 159 169 186 186 107 115 86 57 151 144 180 98 86 74 42 52 45 49 90 74 74 72 60 61 61 60
168 176 178 178 176 177 290 327 310 62 37 100 111 117 93 101 79 46 99 164 58 120 97 92 141 127 119 146 193 120 105 86 88 42 324 97 89 102 89 88 88 81 80 78
168 167 165 166 168 162 303 351 74 51 68 67 103 286 124 245 108 103 329 103 116 21 88 68 90 65 357 195 115 112 91 133 93 79 70 98 91 88 91 96 97 93 89 88
156 148 141 130 160 175 7 78 65 63 73 19 110 157 145 109 50 62 97 125 88 103 96 124 115 147 172 91 130 114 87 129 126 108 87 89 100 105 104 102 103 101 106 89
134 130 132 116 85 125 127 255 50 27 45 317 317 355 132 69 154 86 104 351 135 124 92 126 158 103 98 91 87 103 90 135 134 111 112 117 119 120 123 99 81 81 74 69
138 74 69 110 99 68 35 57 36 102 163 0 252 185 139 351 129 128 342 134 158 147 129 169 157 195 168 142 101 77 72 88 95 113 125 136 128 119 96 88 77 68 71 64
99 111 114 87 88 59 67 19 4 349 71 9 283 69 85 59 259 107 175 100 135 143 126 146 189 109 132 136 128 120 112 114 114 111 98 96 98 95 88 87 83 86 85 67
74 60 66 31 346 81 150 184 84 177 208 243 213 98 106 102 69 78 105 118 118 124 117 199 63 132 136 142 137 117 111 108 108 106 97 93 88 88 90 87 69 90 77 60
66 62 72 32 74 68 26 332 96 209 244 310 116 65 82 117 64 70 103 53 151 153 201 196 146 152 147 143 130 125 111 89 92 99 105 101 100 93 87 85 85 83 68 61
58 34 58 68 96 48 223 231 172 311 263 316 81 54 67 50 93 53 121 133 179 213 198 90 132 139 142 136 129 110 109 106 111 116 113 115 116 110 102 88 82 75 70 59
60 43 79 359 78 28 25 6 22 360 348 319 31 72 64 47 57 145 131 181 166 73 68 117 132 127 125 144 121 138 140 117 111 119 121 122 123 120 116 96 79 80 62 46
46 37 1 45 80 52 19 351 340 305 32 45 1 55 54 293 69 66 19 32 30 95 87 104 131 135 139 122 105 107 113 118 123 125 129 125 126 120 107 90 56 56 66 39